User: anonymous   Login
Location: Tucson
(32.2217°N, 110.9265°W)
Time: 00:08:32
(UTC-07:00)
Language:

STARLINK-3069 - Orbit

View from above orbital plane
View from above orbital plane
View from above satellite
View from above satellite

Ground track
Ground track

The orbit data is extracted from the following two-line orbital elements,

1 49176U 21082AY  21336.91667824 -.00023285  00000-0 -19361-3 0  9993
2 49176  69.9984 262.4873 0003517 274.7456 224.7536 15.69774386  3667
Epoch (UTC): 02 December 2021 22:00:01
Eccentricity: 0.0003517
inclination: 69.9984°
perigee height: 357 km
apogee height: 362 km
right ascension of ascending node: 262.4873°
argument of perigee: 274.7456°
revolutions per day: 15.69774386
mean anomaly at epoch: 224.7536°
orbit number at epoch: 366

The dashed part of the orbit path shows where the satellite is in the earth's shadow,  

DLR